Date,TemperatureHighF,TemperatureAvgF,TemperatureLowF,DewpointHighF,DewpointAvgF,DewpointLowF,HumidityHigh,HumidityAvg,HumidityLow,PressureMaxIn,PressureMinIn,WindSpeedMaxMPH,WindSpeedAvgMPH,GustSpeedMaxMPH,PrecipitationSumIn
2012-1-1,79.9,59.2,45.7,27.8,19.7,13.4,42,23,10,30.35,30.21,4,1,7,0.00
2012-1-2,80.4,59.4,45.5,28.4,20.9,12.9,43,25,11,30.38,30.21,6,1,8,0.00
2012-1-3,79.9,61.3,50.5,29.5,23.5,14.6,36,25,11,30.35,30.19,5,1,8,0.00
2012-1-4,79.9,60.3,48.4,33.8,24.8,18.8,40,28,12,30.38,30.26,8,1,11,0.00
2012-1-5,78.6,59.2,48.2,35.9,23.9,16.7,44,28,12,30.33,30.08,5,1,8,0.00
2012-1-6,77.2,59.2,48.6,33.8,24.8,18.3,43,28,13,30.11,29.98,6,1,8,0.00
2012-1-7,76.8,60.7,46.0,34.2,23.4,14.2,46,27,11,30.17,29.95,14,3,19,0.00
2012-1-8,73.2,61.5,51.1,21.2,16.0,10.9,22,17,11,30.29,30.14,14,3,21,0.00
2012-1-9,73.6,56.8,46.9,32.8,18.6,9.7,42,23,12,30.35,30.20,7,1,11,0.00
2012-1-10,71.6,55.4,44.1,29.6,25.4,19.6,48,33,14,30.29,30.08,8,1,11,0.00
2012-1-11,71.2,58.9,47.1,37.4,27.9,16.7,53,33,17,30.15,30.03,8,2,12,0.00
2012-1-12,73.2,62.3,53.2,18.5,15.5,10.9,21,16,10,30.21,30.07,11,3,15,0.00
2012-1-13,75.2,58.7,43.3,22.6,13.2,4.6,22,17,10,30.33,30.09,8,2,11,0.00
2012-1-14,67.3,52.0,38.5,27.7,13.4,3.0,44,22,14,30.29,30.17,4,1,6,0.00
2012-1-15,66.4,54.2,44.4,39.9,16.6,5.8,57,23,15,30.21,30.06,22,2,27,0.00
2012-1-16,65.3,58.0,50.4,40.7,36.1,29.1,61,45,27,30.19,30.04,35,19,47,0.00
2012-1-17,67.1,54.1,44.8,37.2,33.3,26.8,62,48,23,30.36,30.18,27,9,36,0.00
2012-1-18,68.9,52.4,39.9,32.3,27.3,19.8,60,41,19,30.39,30.21,7,1,9,0.00
2012-1-19,72.0,54.8,40.1,29.5,25.3,18.2,60,35,13,30.25,30.01,7,1,10,0.00
2012-1-20,74.5,61.7,50.0,41.8,30.6,23.3,48,32,18,30.11,29.99,25,3,30,0.00
2012-1-21,75.2,61.2,54.9,46.6,36.2,14.9,58,41,12,30.07,29.70,46,14,73,0.00
2012-1-22,68.2,57.6,48.9,39.4,33.9,25.6,61,42,22,30.22,30.06,25,4,31,0.00
2012-1-23,63.5,53.9,45.7,47.4,39.3,32.1,75,58,36,30.15,29.91,22,3,27,0.00
2012-1-24,70.9,61.2,48.9,43.9,28.1,15.8,75,35,13,30.31,30.01,19,5,24,0.00
2012-1-25,82.2,65.2,56.7,35.6,24.2,17.9,44,22,16,30.30,30.17,8,3,13,0.00
2012-1-26,79.5,62.2,49.1,39.7,35.7,32.6,60,40,19,30.24,29.99,6,1,9,0.00
2012-1-27,76.3,66.5,55.8,39.9,26.2,14.3,52,24,12,30.29,29.99,13,4,19,0.00
2012-1-28,75.4,63.4,54.0,22.6,15.9,11.4,20,16,10,30.39,30.27,12,3,20,0.00
2012-1-29,77.2,57.5,42.6,23.6,12.8,3.4,25,17,11,30.37,30.14,5,1,8,0.00
2012-1-30,75.9,58.3,41.7,24.2,14.8,9.2,31,19,11,30.17,29.96,8,2,10,0.00
2012-1-31,79.7,64.3,51.8,39.2,20.0,11.1,50,20,10,30.21,30.00,22,6,27,0.00
2012-2-1,76.3,62.3,48.4,39.6,25.4,17.2,44,26,12,30.21,29.96,21,4,26,0.00
2012-2-2,72.3,61.6,49.5,40.6,25.0,12.2,57,30,10,30.10,29.96,21,5,26,0.00
2012-2-3,70.7,56.7,43.3,19.0,13.4,4.6,27,18,11,30.18,30.06,8,2,11,0.00
2012-2-4,72.1,55.7,41.5,30.7,20.5,13.9,51,28,12,30.21,30.08,8,2,15,0.00
2012-2-5,73.8,58.2,43.7,26.8,19.7,14.3,46,24,11,30.19,30.02,6,1,8,0.00
2012-2-6,72.5,60.0,47.5,32.8,20.7,14.6,41,23,11,30.15,30.02,6,1,8,0.00
2012-2-7,66.7,57.7,50.4,32.2,22.9,15.8,40,26,15,30.08,29.98,4,0,4,0.00
2012-2-8,77.0,65.7,55.8,29.8,23.9,18.3,32,21,13,30.24,30.04,7,2,10,0.00
2012-2-9,85.5,69.2,54.5,31.9,26.7,18.9,37,22,11,30.25,30.08,15,4,19,0.00
2012-2-10,84.2,69.7,55.9,37.5,30.4,23.4,36,24,12,30.19,30.00,23,4,28,0.00
2012-2-11,70.7,63.7,57.2,44.4,37.4,23.0,57,39,17,30.02,29.82,36,19,46,0.00
2012-2-12,67.8,60.8,54.3,43.6,38.2,33.4,62,44,32,29.99,29.88,33,18,38,0.00
2012-2-13,71.1,58.7,48.4,42.4,34.9,16.0,60,43,18,30.00,29.80,29,6,39,0.00
2012-2-14,65.8,55.7,43.9,40.1,34.2,29.0,63,46,26,30.07,29.84,26,12,30,0.00
2012-2-15,61.9,51.9,45.7,45.5,39.7,35.0,88,64,40,30.08,29.93,22,4,27,0.26
2012-2-16,66.9,58.6,49.8,40.8,30.3,19.3,71,36,20,30.17,30.04,15,4,23,0.01
2012-2-17,76.3,61.4,45.9,33.3,23.8,13.2,52,26,11,30.23,30.07,14,3,19,0.00
2012-2-18,69.8,57.7,44.8,43.8,36.5,25.6,73,46,28,30.22,29.99,29,5,33,0.00
2012-2-19,66.2,58.6,52.3,41.9,37.8,33.6,60,47,32,30.11,29.92,34,17,39,0.00
2012-2-20,68.4,57.4,48.4,41.8,36.7,27.0,68,48,23,30.18,30.07,20,6,24,0.00
2012-2-21,77.4,60.7,44.6,36.4,26.3,14.9,68,33,11,30.27,30.12,8,2,10,0.00
2012-2-22,86.2,67.5,50.5,43.0,33.4,24.3,53,31,14,30.21,29.94,11,3,16,0.00
2012-2-23,88.3,69.9,53.6,38.1,27.4,16.3,42,23,10,30.21,29.78,8,2,11,0.00
2012-2-24,84.6,69.8,58.3,41.7,23.8,14.7,44,19,10,30.16,30.00,11,2,14,0.00
2012-2-25,83.7,67.6,50.5,39.2,32.8,24.6,51,29,12,30.14,29.87,27,7,34,0.00
2012-2-26,78.8,66.7,55.6,44.9,26.5,12.2,66,26,10,30.01,29.80,31,9,40,0.00
2012-2-27,63.9,54.9,45.3,43.4,36.1,30.4,75,51,29,29.96,29.81,34,13,38,0.00
2012-2-28,61.7,52.6,43.2,35.9,30.6,24.7,68,44,29,30.29,29.95,30,12,39,0.00
2012-2-29,69.4,56.9,48.7,39.4,33.4,21.9,59,43,18,30.29,30.09,34,12,41,0.00
2012-3-1,71.8,61.1,52.7,40.1,34.9,24.6,53,39,19,30.15,29.90,36,14,45,0.00
2012-3-2,68.7,59.0,49.8,39.5,19.2,9.4,63,24,12,30.39,30.04,27,5,34,4.55
2012-3-3,79.7,59.0,41.2,25.9,14.0,3.2,39,18,10,30.44,30.25,8,2,11,0.00
2012-3-4,86.0,64.4,46.0,29.5,23.9,15.0,43,24,10,30.31,30.03,8,1,9,0.00
2012-3-5,84.0,66.7,53.8,39.1,26.7,19.0,36,24,10,30.12,29.92,7,2,9,0.00
2012-3-6,77.7,62.5,48.9,41.6,29.9,14.8,61,30,18,29.93,29.63,43,13,53,0.00
2012-3-7,67.5,55.7,45.9,15.7,12.6,4.8,27,18,13,30.20,29.84,23,5,27,0.00
2012-3-8,79.5,63.4,48.4,23.7,15.5,9.9,22,16,10,30.37,30.20,7,2,13,0.00
2012-3-9,84.7,66.3,50.5,26.8,18.0,9.9,27,16,10,30.36,30.06,8,2,10,4.55
2012-3-10,78.8,64.1,50.4,33.6,21.1,11.4,30,20,12,30.13,29.93,9,2,13,0.00
2012-3-11,80.8,65.3,52.2,36.0,29.4,19.9,51,28,11,30.04,29.88,27,6,34,0.00
2012-3-12,82.0,68.1,59.2,42.1,34.5,23.6,45,31,13,30.05,29.90,24,8,28,0.00
2012-3-13,80.2,68.0,59.2,42.0,34.4,21.0,50,31,12,30.02,29.91,27,12,34,0.00
2012-3-14,82.9,69.5,59.5,47.4,36.7,26.2,56,32,14,30.11,29.98,29,12,34,0.00
2012-3-15,62.4,61.6,60.4,45.8,44.0,42.0,56,52,50,30.10,30.06,26,18,31,0.00
2012-3-16,82.9,72.8,61.0,48.2,42.4,25.2,61,37,13,29.96,29.80,36,20,43,0.00
2012-3-17,71.4,58.6,47.8,54.0,44.1,40.3,84,60,34,29.83,29.63,38,13,44,0.07
2012-3-18,56.5,49.9,45.9,43.4,38.1,30.4,82,64,39,29.94,29.73,24,10,30,0.03
2012-3-19,65.8,54.4,45.1,39.1,27.5,18.5,60,39,18,30.09,29.88,25,11,34,0.00
2012-3-20,74.8,58.8,42.3,38.4,31.4,16.9,73,41,12,30.23,30.08,17,3,21,0.00
2012-3-21,83.3,71.2,52.5,40.6,35.1,26.3,55,29,13,30.19,29.93,8,2,10,0.00
2012-3-22,87.8,72.5,55.4,42.4,38.3,33.1,53,31,16,29.98,29.80,21,5,28,0.00
2012-3-23,84.2,71.5,59.4,45.2,39.8,31.7,51,33,17,30.00,29.88,24,10,30,0.00
2012-3-24,82.9,69.6,56.8,45.8,41.1,33.8,61,38,18,29.98,29.84,20,6,22,0.00
2012-3-25,77.0,62.8,50.7,50.3,38.3,22.4,73,43,16,30.00,29.77,36,12,43,0.00
2012-3-26,72.0,60.8,48.9,42.0,39.3,35.6,71,47,29,30.17,29.97,24,9,30,0.00
2012-3-27,82.6,70.1,54.5,43.3,36.2,23.8,61,32,12,30.10,29.93,26,11,31,0.00
2012-3-28,80.6,67.9,58.8,47.2,31.2,16.2,52,28,11,30.06,29.91,40,20,52,0.00
2012-3-29,88.9,74.8,63.0,50.4,44.1,31.0,55,37,13,30.01,29.85,34,15,43,0.00
2012-3-30,91.4,75.2,64.0,51.6,46.9,36.1,58,40,15,29.98,29.83,30,11,34,0.00
2012-3-31,82.4,69.8,61.2,49.5,44.8,34.1,56,42,22,29.92,29.82,66,20,66,4.67
2012-4-1,73.0,62.4,52.7,46.6,32.2,22.3,64,35,16,30.04,29.86,42,21,48,0.00
2012-4-2,83.1,66.8,49.1,33.6,24.8,12.2,52,24,10,30.11,29.87,15,4,18,0.00
2012-4-3,88.9,70.5,52.0,30.3,24.7,14.6,42,20,10,30.07,29.83,33,7,44,0.00
2012-4-4,89.2,75.2,61.5,41.3,27.7,16.8,30,18,11,29.96,29.77,27,9,34,0.00
2012-4-5,82.4,70.1,59.0,41.0,27.6,17.2,42,22,10,29.93,29.74,39,15,46,0.00
2012-4-6,79.3,65.5,52.5,35.5,22.3,12.2,44,22,10,30.16,29.92,25,7,33,0.00
2012-4-7,87.6,70.4,50.7,27.7,18.2,9.7,20,14,10,30.15,29.98,8,2,11,0.00
2012-4-8,92.7,74.7,54.5,32.5,21.6,14.7,24,14,10,30.09,29.93,21,4,25,0.00
2012-4-9,91.8,77.0,61.5,31.9,22.5,16.3,21,14,10,30.00,29.84,27,6,33,0.00
2012-4-10,89.1,74.1,62.4,45.4,27.4,17.3,49,19,10,29.91,29.72,42,12,64,0.00
2012-4-11,72.0,63.9,56.8,46.7,39.9,33.9,50,42,31,30.09,30.00,32,13,42,0.00
2012-4-12,74.3,62.8,50.9,41.9,32.7,19.4,54,35,15,30.15,30.00,33,15,53,0.00
2012-4-13,71.1,57.8,47.3,49.6,41.6,34.8,89,58,28,30.01,29.76,59,12,59,0.11
2012-4-14,67.1,57.1,46.4,43.1,34.2,23.2,84,46,19,30.08,29.77,33,11,37,0.00
2012-4-15,82.8,66.5,52.7,47.4,37.2,28.7,53,36,15,30.18,30.02,21,10,27,0.00
2012-4-16,89.1,74.1,56.1,46.6,36.1,23.7,55,29,10,30.19,30.01,16,4,20,0.00
2012-4-17,95.2,80.4,66.4,40.9,34.9,26.1,32,21,10,30.09,29.87,27,7,32,0.00
2012-4-18,95.4,82.2,71.4,45.0,33.8,25.2,34,19,10,29.96,29.78,31,12,40,0.00
2012-4-19,100.6,85.2,72.5,53.8,42.1,29.9,40,25,10,29.93,29.79,36,11,41,0.00
2012-4-21,106.3,91.4,77.0,52.4,41.4,32.5,35,19,10,29.90,29.74,24,8,30,0.00
2012-4-22,104.7,88.6,77.5,59.1,48.9,36.6,44,29,10,29.87,29.74,29,10,34,0.00
2012-4-23,81.0,72.1,64.2,55.4,52.9,49.5,72,52,38,29.91,29.80,47,25,73,0.00
2012-4-24,94.5,76.3,61.3,50.4,43.4,27.0,61,36,11,30.01,29.83,39,16,47,0.00
2012-4-25,132.3,80.5,66.6,52.9,43.5,29.9,60,30,10,29.94,29.70,41,11,55,4.78
2012-4-26,80.8,69.6,60.8,52.6,46.9,37.3,73,46,22,29.99,29.81,36,13,42,4.79
2012-4-27,91.4,74.4,61.7,52.4,46.7,34.4,60,41,14,30.06,29.83,30,14,38,0.00
2012-4-28,96.8,81.6,64.0,51.4,40.7,25.3,62,30,10,29.90,29.66,38,11,49,0.00
2012-4-29,97.0,81.2,66.7,56.2,43.9,25.8,59,32,10,29.90,29.74,37,10,42,0.00
2012-4-30,95.0,78.6,63.3,55.7,51.1,35.0,66,43,14,29.94,29.77,27,8,35,0.00
2012-5-1,79.2,71.4,64.9,54.7,52.5,49.7,69,52,39,29.86,29.70,41,23,49,0.00
2012-5-2,78.3,69.2,62.4,50.8,48.5,45.7,61,49,33,29.87,29.74,35,24,45,4.79
2012-5-3,82.8,71.5,62.8,51.4,48.3,44.7,61,45,28,29.96,29.83,49,24,63,0.00
2012-5-4,87.6,74.4,62.8,51.3,46.7,35.1,61,40,17,29.99,29.87,37,20,48,0.00
2012-5-5,94.5,78.3,65.1,51.0,43.3,24.9,58,34,10,29.97,29.82,37,16,47,0.00
2012-5-6,96.6,79.6,65.5,51.6,41.2,23.1,57,32,10,29.92,29.81,30,13,53,0.00
2012-5-7,97.3,82.2,65.3,50.9,35.3,23.2,53,23,10,29.95,29.75,46,12,52,0.00
2012-5-8,95.4,81.8,64.4,41.9,29.9,13.4,38,17,10,29.91,29.80,24,5,32,0.00
2012-5-9,104.9,89.9,73.2,39.8,30.2,17.6,20,12,10,29.87,29.68,29,8,35,0.00
2012-5-10,100.6,85.2,71.6,48.9,39.0,28.0,42,21,10,29.87,29.66,62,12,72,0.00
2012-5-11,94.5,82.0,70.0,51.3,35.4,19.0,45,21,10,29.88,29.74,53,21,68,0.00
2012-5-12,100.6,85.3,71.6,52.1,45.7,32.0,46,28,10,29.98,29.86,41,13,54,0.00
2012-5-13,105.1,89.4,76.1,52.0,38.6,25.8,34,19,10,29.95,29.81,31,17,38,0.00
2012-5-14,102.0,87.8,75.7,48.5,39.7,27.0,38,20,10,29.91,29.76,36,22,49,0.00
2012-5-15,97.7,85.4,73.2,44.0,33.0,23.4,29,16,10,29.81,29.71,38,21,53,0.00
2012-5-16,99.1,81.9,75.0,45.3,41.1,29.9,33,25,10,29.83,29.77,36,17,47,0.00
2012-5-17,102.7,91.7,78.8,59.2,47.0,32.0,40,23,10,29.80,29.60,40,10,65,0.00
2012-5-18,87.6,76.0,64.4,52.4,48.3,33.3,59,40,19,29.79,29.63,40,24,49,0.00
2012-5-19,102.4,84.6,67.3,54.2,44.5,29.9,60,31,10,29.86,29.73,34,14,42,0.00
2012-5-20,106.0,91.0,72.5,53.2,41.2,29.9,44,21,10,29.88,29.75,17,6,26,0.00
2012-5-21,109.9,94.8,75.6,52.1,38.4,26.9,44,15,10,29.87,29.72,66,11,66,4.79
2012-5-22,104.9,92.2,81.1,50.8,38.6,25.9,30,17,10,29.81,29.63,65,20,80,0.00
2012-5-23,95.0,83.7,73.0,53.4,46.9,33.2,49,29,18,29.66,29.49,66,32,79,0.00
2012-5-24,95.0,78.6,66.2,54.4,51.7,41.0,62,42,16,29.65,29.46,61,25,72,0.00
2012-5-25,79.3,70.7,59.5,53.9,42.8,22.3,61,38,21,29.80,29.52,39,22,50,0.00
2012-5-26,77.2,66.0,53.8,44.1,35.5,27.2,53,34,19,29.98,29.79,36,16,74,0.00
2012-5-27,90.7,74.1,58.5,45.0,38.9,25.1,60,33,10,30.02,29.87,34,11,42,0.00
2012-5-28,97.7,83.9,68.4,44.4,37.1,26.1,40,22,10,29.95,29.80,32,8,40,0.00
2012-5-29,100.4,86.0,71.2,44.4,35.2,28.4,32,18,10,29.91,29.80,49,14,58,0.00
2012-5-30,99.9,86.5,74.3,48.7,38.1,29.9,32,20,10,29.92,29.78,58,21,73,0.00
2012-5-31,113.4,93.1,75.9,49.5,43.2,29.9,39,21,10,29.84,29.62,52,18,77,0.00
2012-6-1,111.6,97.4,84.2,46.7,37.2,25.8,21,13,10,29.73,29.60,59,17,88,0.00
2012-6-2,105.1,90.7,77.4,54.5,41.2,29.9,44,20,10,29.75,29.63,49,19,61,0.00
2012-6-3,101.1,86.1,74.5,58.0,51.8,33.5,51,33,10,29.84,29.71,56,16,78,0.00
2012-6-4,97.7,82.9,69.3,58.8,52.8,46.3,61,38,19,29.84,29.71,53,19,70,0.00
2012-6-5,88.0,76.6,66.7,56.1,47.7,35.4,68,39,19,29.87,29.72,55,26,70,0.00
2012-6-6,97.5,81.6,64.6,47.2,38.8,24.5,52,26,10,29.83,29.66,49,13,62,0.00
2012-6-7,104.0,88.8,70.5,48.4,38.7,28.5,37,20,10,29.81,29.69,30,10,40,0.00
2012-6-8,101.5,87.0,74.7,53.1,47.1,32.7,44,27,10,29.80,29.64,43,10,59,0.00
2012-6-9,94.8,83.3,73.6,52.3,45.0,31.1,45,28,11,29.71,29.57,51,21,67,0.00
2012-6-10,102.6,86.4,69.3,54.5,43.5,26.9,51,27,10,29.84,29.67,62,14,95,0.00
2012-6-11,104.5,87.2,70.2,56.6,47.8,30.3,53,30,10,29.90,29.70,47,12,56,4.79
2012-6-12,107.6,92.4,76.6,53.8,43.8,31.5,44,22,10,29.90,29.70,32,12,48,0.00
2012-6-13,103.6,91.7,81.0,48.9,37.8,27.0,31,16,10,29.76,29.60,45,19,67,0.00
2012-6-14,101.5,87.0,72.7,54.4,42.2,27.3,50,23,10,29.75,29.63,49,17,68,0.00
2012-6-15,99.0,82.8,66.6,58.2,50.2,31.0,61,37,10,29.80,29.66,51,13,63,0.00
2012-6-16,100.0,85.0,68.0,61.5,48.1,29.9,61,34,10,29.88,29.74,37,4,47,0.00
2012-6-17,110.3,92.4,70.3,51.7,41.3,30.3,48,21,10,29.88,29.69,31,7,48,0.00
2012-6-18,105.1,93.7,83.3,46.8,36.3,24.5,26,14,10,29.78,29.64,42,21,64,0.00
2012-6-19,104.0,90.3,77.0,46.1,33.6,19.6,28,14,10,29.71,29.57,69,22,98,0.00
2012-6-20,107.8,91.6,78.3,52.4,38.7,25.7,32,17,10,29.72,29.62,42,19,56,0.00
2012-6-21,104.5,90.9,78.4,58.4,46.0,33.1,39,23,10,29.79,29.66,33,13,40,0.00
2012-6-22,100.2,88.9,76.3,47.8,34.9,24.0,36,16,10,29.77,29.62,46,18,63,0.00
2012-6-23,101.5,88.5,75.0,49.7,39.6,29.9,34,19,10,29.76,29.63,42,15,59,0.00
2012-6-24,104.0,88.5,75.0,51.2,43.9,31.4,39,23,10,29.87,29.74,47,14,56,0.00
2012-6-25,102.0,88.1,76.5,45.0,35.6,25.8,31,17,10,29.89,29.73,58,22,72,0.00
2012-6-26,104.7,90.0,75.6,41.8,33.7,18.3,27,14,10,29.81,29.64,43,16,72,0.00
2012-6-27,108.9,93.1,75.2,43.6,36.2,25.8,25,14,10,29.81,29.68,42,14,55,0.00
2012-6-28,109.6,94.6,82.0,48.5,39.1,25.8,29,16,10,29.91,29.79,41,15,69,0.00
2012-6-29,107.4,94.5,81.9,44.7,33.8,20.0,25,12,10,29.91,29.75,52,20,72,0.00
2012-6-30,107.6,93.2,81.1,47.2,35.0,23.9,25,14,10,29.85,29.68,46,16,74,0.00
2012-7-1,103.3,90.0,78.3,53.5,43.4,31.2,37,22,10,29.77,29.63,39,21,45,0.00
2012-7-2,104.7,90.3,77.5,58.6,48.9,36.6,48,28,10,29.79,29.66,39,14,48,0.00
2012-7-3,100.2,87.9,73.8,63.0,58.6,55.1,56,39,24,29.86,29.70,30,9,39,0.00
2012-7-4,96.6,84.6,73.6,67.7,60.8,55.1,73,47,29,29.91,29.77,20,6,24,0.00
2012-7-5,100.8,87.3,72.0,64.6,57.5,38.5,61,39,12,29.92,29.78,23,8,30,0.00
2012-7-6,105.6,90.3,75.6,61.2,53.8,36.6,55,33,10,29.94,29.77,28,12,35,0.00
2012-7-7,109.4,95.9,78.6,52.3,40.5,25.9,37,17,10,29.92,29.77,31,11,45,0.00
2012-7-8,113.0,99.4,83.8,46.7,34.4,24.5,15,11,10,29.90,29.75,35,13,50,0.00
2012-7-9,114.6,101.4,86.4,47.4,36.3,23.5,21,11,10,29.85,29.70,40,12,49,0.00
2012-7-10,118.0,103.5,91.9,48.4,39.3,29.9,22,11,10,29.79,29.61,36,15,50,0.00
2012-7-11,110.3,99.6,93.2,64.8,46.4,29.9,32,18,10,29.87,29.67,35,8,54,0.00
2012-7-12,96.8,90.1,83.1,73.5,64.2,48.1,72,44,23,29.97,29.73,19,3,24,0.00
2012-7-13,99.9,88.6,81.3,72.0,67.0,63.1,72,50,32,29.95,29.81,14,4,20,0.00
2012-7-14,102.0,90.7,77.2,73.7,67.2,46.5,82,49,25,29.94,29.75,23,4,28,0.00
2012-7-15,104.9,91.0,79.3,68.9,49.0,26.4,43,27,10,29.90,29.71,30,11,34,0.00
2012-7-16,100.4,87.8,76.3,44.6,32.9,24.2,29,15,10,29.83,29.73,40,18,55,0.00
2012-7-17,98.6,85.6,73.2,45.4,36.5,28.4,32,19,10,29.89,29.78,53,18,64,0.00
2012-7-18,104.9,91.8,77.2,48.9,37.5,28.7,30,16,10,29.91,29.78,37,10,48,0.00
2012-7-19,108.1,94.5,79.9,59.3,41.5,30.0,31,17,10,29.94,29.77,31,9,36,0.00
2012-7-20,111.2,97.3,84.4,57.7,46.1,36.6,32,19,10,29.92,29.76,25,14,30,0.00
2012-7-21,108.1,96.4,84.4,67.7,54.6,36.6,40,26,10,29.94,29.71,27,9,31,0.00
2012-7-22,105.3,94.9,82.2,69.7,59.6,45.5,43,32,19,29.93,29.75,24,6,29,0.00
2012-7-23,107.1,94.5,82.9,67.9,55.3,38.5,38,28,14,29.92,29.74,27,11,36,0.00
2012-7-24,106.9,93.9,82.0,54.2,42.6,32.3,36,19,10,29.87,29.72,31,20,38,0.00
2012-7-25,108.0,94.5,83.7,44.6,34.3,23.1,22,13,10,29.88,29.73,34,17,40,0.00
2012-7-26,108.7,95.2,82.8,47.2,34.4,24.5,20,12,10,29.87,29.74,36,18,41,0.00
2012-7-27,106.5,93.4,80.2,48.2,37.9,29.9,23,15,10,29.88,29.74,30,16,40,0.00
2012-7-28,108.7,93.6,79.0,48.9,36.9,19.4,29,15,10,29.92,29.76,32,11,37,0.00
2012-7-29,104.9,89.4,77.7,66.2,52.9,36.8,38,29,20,29.94,29.77,14,5,17,0.00
2012-7-30,101.1,87.9,80.4,77.1,70.4,52.3,80,58,32,29.97,29.85,14,3,17,0.00
2012-7-31,90.1,81.5,77.0,78.0,74.4,72.3,94,80,58,30.02,29.90,9,1,14,0.37
2012-8-1,100.0,88.1,76.1,75.0,61.9,50.1,93,45,25,30.01,29.86,17,4,22,0.00
2012-8-2,107.4,93.8,81.5,67.1,55.7,36.6,38,29,10,29.92,29.72,27,11,31,0.00
2012-8-3,102.9,88.9,80.2,62.3,55.1,51.3,41,32,22,29.81,29.67,28,16,35,0.00
2012-8-4,107.8,92.2,78.3,61.4,57.3,38.5,49,33,10,29.84,29.71,25,13,30,0.00
2012-8-5,105.6,93.4,81.9,66.9,54.3,36.6,47,30,10,29.95,29.82,21,7,27,0.00
2012-8-6,105.8,94.1,81.9,66.2,55.8,35.1,42,29,11,29.98,29.81,15,3,19,0.00
2012-8-7,113.2,100.6,87.1,68.3,49.2,33.8,37,19,10,29.90,29.72,20,6,24,0.00
2012-8-8,113.5,102.5,91.6,64.8,47.7,36.6,28,17,10,29.85,29.71,23,7,27,0.00
2012-8-9,109.2,99.0,87.8,71.0,61.6,44.1,54,31,18,29.89,29.71,21,4,26,0.00
2012-8-10,113.4,100.0,87.3,73.0,58.8,39.1,49,28,10,29.84,29.60,14,3,20,0.00
2012-8-11,113.4,98.9,87.4,69.0,56.6,38.5,46,27,10,29.83,29.64,27,7,32,0.00
2012-8-12,115.9,101.1,90.1,61.3,51.7,36.6,35,22,10,29.81,29.57,24,8,24,0.00
2012-8-13,115.9,101.5,91.4,60.1,49.4,36.7,32,19,10,29.88,29.71,36,13,36,0.00
2012-8-14,112.8,100.7,88.7,60.6,51.4,36.7,35,21,10,29.87,29.67,28,13,28,0.00
2012-8-15,112.6,94.6,84.7,75.7,64.2,40.6,70,38,23,29.87,29.73,25,8,28,0.00
2012-8-16,112.6,91.2,83.7,78.8,70.7,37.0,76,53,30,29.97,29.71,23,4,23,0.00
2012-8-17,111.2,89.6,82.0,77.0,72.1,40.3,80,57,42,30.00,29.68,22,4,22,0.00
2012-8-18,105.8,91.4,81.3,75.6,71.5,54.7,78,54,35,29.96,29.75,22,5,22,0.00
2012-8-19,105.6,94.2,82.6,72.7,63.8,56.8,65,37,29,29.96,29.73,30,9,30,0.00
2012-8-20,106.7,94.8,83.5,68.9,61.3,55.2,42,33,21,30.00,29.74,32,13,32,0.00
2012-8-21,105.1,92.4,82.6,71.4,63.8,60.6,49,39,27,29.95,29.74,32,13,32,0.00
2012-8-22,102.0,86.7,78.6,77.5,66.5,61.5,88,52,40,29.93,29.78,27,-118,30,0.34
2012-8-23,99.7,88.2,77.5,69.6,66.1,62.6,66,49,35,29.93,29.79,27,10,27,0.00
2012-8-24,104.9,90.4,78.6,67.1,61.8,46.9,60,41,17,29.89,29.73,34,14,34,0.00
2012-8-25,103.5,90.2,80.4,66.6,58.3,43.5,50,35,20,29.87,29.71,34,18,34,0.00
2012-8-26,104.7,90.6,78.1,55.0,42.8,29.8,40,22,10,29.92,29.77,35,19,35,0.00
2012-8-27,109.6,94.4,78.1,63.1,43.2,32.7,57,19,10,29.94,29.74,47,10,47,0.00
2012-8-28,108.0,96.3,86.2,53.2,42.3,33.8,25,16,10,29.90,29.72,31,9,31,0.00
2012-8-29,104.9,92.5,79.5,73.9,58.2,33.3,61,33,13,29.92,29.75,30,4,30,0.00
2012-8-30,109.0,83.6,72.9,76.8,67.4,37.0,93,62,31,29.93,29.80,30,-140,30,0.15
2012-8-31,99.0,87.4,74.1,74.1,61.3,25.2,90,51,11,29.92,29.79,25,-171,25,0.00
2012-9-1,103.3,90.6,76.5,57.0,38.1,24.4,40,18,10,30.66,29.81,30,10,30,0.00
2012-9-2,106.9,91.6,75.9,54.1,34.1,19.0,30,14,10,29.92,29.78,28,8,28,0.00
2012-9-3,103.8,92.6,80.6,70.5,47.7,27.7,49,23,10,29.99,29.85,24,8,24,0.00
2012-9-4,104.4,91.7,82.2,74.3,55.8,23.9,58,31,15,30.02,29.82,23,6,23,0.00
2012-9-5,105.8,91.7,85.5,61.2,45.2,27.5,31,21,11,29.99,29.79,33,13,33,0.00
2012-9-6,103.5,91.7,82.4,60.1,52.4,29.1,42,27,12,29.98,29.81,35,20,35,0.00
2012-9-7,105.6,91.7,81.3,61.3,57.4,39.7,44,34,11,30.02,29.86,36,16,36,0.00
2012-9-8,109.8,94.2,84.0,67.5,60.3,31.1,43,34,12,29.97,29.80,31,10,31,0.00
2012-9-9,103.6,90.6,80.1,72.1,67.2,45.1,76,48,32,30.01,29.78,29,4,29,0.00
2012-9-10,93.4,84.0,77.0,72.0,69.5,64.0,80,63,44,29.99,29.85,16,4,23,0.00
2012-9-11,95.5,84.4,75.4,74.1,70.3,66.0,91,65,42,29.97,29.85,21,6,23,0.00
2012-9-12,103.3,87.1,75.2,71.1,65.9,60.3,74,52,28,30.04,29.82,22,7,22,0.00
2012-9-13,106.7,91.9,77.9,63.1,44.6,24.4,52,25,10,30.04,29.86,18,6,18,0.00
2012-9-14,105.3,90.4,76.1,50.2,39.2,24.4,32,18,10,30.09,29.85,16,4,16,0.00
2012-9-15,103.3,87.1,70.7,50.9,41.6,30.0,47,23,10,30.11,29.90,15,3,15,0.00
2012-9-16,106.2,86.8,70.7,56.8,42.0,28.2,47,22,10,30.06,29.91,25,5,25,0.00
2012-9-17,104.5,90.7,81.3,48.6,38.8,25.9,28,17,10,30.09,29.86,33,16,33,0.00
2012-9-18,105.4,92.0,81.3,52.3,40.1,30.2,32,18,10,30.10,29.88,25,11,26,0.00
2012-9-19,105.6,91.6,80.2,51.8,42.4,32.7,33,20,10,30.06,29.87,21,6,21,0.00
2012-9-20,107.4,93.8,80.2,48.6,40.0,26.4,25,17,10,29.99,29.82,31,5,31,0.00
2012-9-21,108.0,95.3,82.8,54.1,41.2,31.3,28,17,10,29.99,29.78,23,8,23,0.00
2012-9-22,105.4,94.5,86.5,54.1,43.6,31.8,27,18,10,29.98,29.84,50,10,50,0.00
2012-9-23,107.2,94.3,82.6,55.8,40.4,29.8,30,17,10,29.96,29.82,30,10,30,0.00
2012-9-24,107.2,91.4,83.3,47.1,40.9,31.3,25,18,10,29.96,29.79,40,15,40,0.00
2012-9-25,105.3,85.9,76.6,50.2,39.9,29.8,34,21,10,29.92,29.75,36,18,36,0.00
2012-9-26,106.0,85.3,74.1,55.8,45.4,29.8,44,28,10,29.96,29.77,36,13,36,0.00
2012-9-27,102.2,83.6,69.6,63.3,49.4,31.6,51,33,11,29.96,29.81,26,6,26,0.00
2012-9-28,99.5,85.8,71.4,51.8,46.1,36.7,42,26,12,29.95,29.81,17,5,34,0.00
2012-9-29,102.6,88.5,75.7,51.8,44.0,31.3,34,23,10,29.99,29.77,30,5,30,0.00
2012-9-30,106.0,90.7,74.5,48.6,39.3,29.8,32,18,10,30.01,29.83,21,6,21,0.00
2012-10-1,108.9,92.4,78.6,40.3,32.9,24.4,22,13,10,29.98,29.82,20,5,20,0.00
2012-10-2,108.7,93.0,78.3,40.3,31.5,21.2,16,11,10,29.98,29.76,24,7,24,0.00
2012-10-3,102.9,91.3,81.1,49.1,36.2,26.8,22,15,10,29.94,29.82,35,13,38,0.00
2012-10-4,108.7,86.2,78.3,47.3,33.6,23.4,33,16,10,30.02,29.83,45,22,45,0.00
2012-10-5,108.5,83.4,76.5,52.9,39.6,21.4,42,23,10,30.01,29.77,38,16,38,0.00
2012-10-6,102.6,83.7,75.9,53.8,45.7,29.3,43,29,11,29.93,29.81,33,19,33,0.00
2012-10-7,96.8,83.4,75.6,57.4,49.7,23.7,52,33,12,30.02,29.80,34,17,34,0.00
2012-10-8,95.2,81.3,72.1,56.7,50.9,29.8,55,38,15,30.01,29.83,34,18,34,0.00
2012-10-9,93.9,78.3,70.5,55.2,47.8,26.6,57,37,10,29.95,29.82,34,18,34,0.00
2012-10-10,95.0,73.7,67.3,55.0,48.8,35.1,60,43,22,29.96,29.80,36,22,36,0.00
2012-10-11,90.5,67.7,62.8,50.2,44.3,37.4,55,44,27,29.94,29.83,42,23,42,0.00
2012-10-12,90.7,67.4,60.1,49.8,44.2,28.8,56,44,27,30.14,29.85,33,14,33,0.00
2012-10-13,84.6,71.2,61.2,49.6,45.8,33.1,60,42,22,30.21,29.83,30,2,30,0.00
2012-10-14,94.5,77.9,61.3,49.3,39.8,30.9,46,28,11,30.14,29.86,33,3,33,0.00
2012-10-15,95.9,80.6,66.2,48.0,37.5,29.8,36,22,10,30.01,29.85,13,4,25,0.00
2012-10-16,97.2,81.1,67.8,48.6,36.5,30.6,32,21,10,29.91,29.75,12,4,17,0.00
2012-10-17,94.1,77.1,63.5,53.8,42.9,33.3,43,30,19,30.12,29.80,12,3,12,0.00
2012-10-18,93.0,76.9,63.1,64.0,51.8,39.9,62,43,18,30.08,29.94,23,7,23,0.00
2012-10-19,83.7,72.8,69.6,58.8,55.1,34.3,65,55,27,29.99,29.88,22,10,22,0.00
2012-10-20,91.9,79.7,70.9,57.6,53.5,41.5,61,42,20,29.91,29.65,66,21,66,0.00
2012-10-21,90.9,73.2,68.4,55.9,51.8,41.5,61,48,33,30.02,29.69,38,26,38,0.00
2012-10-22,95.4,72.1,65.1,53.1,47.9,31.1,60,44,19,29.92,29.73,40,20,40,0.00
2012-10-23,89.4,69.1,62.6,50.2,43.6,28.0,61,42,15,29.87,29.65,42,23,42,0.00
2012-10-24,80.8,68.8,61.3,44.4,39.0,31.8,52,35,17,29.97,29.81,42,23,46,0.00
2012-10-25,82.0,70.4,58.8,36.1,24.2,14.4,32,19,10,30.04,29.76,34,6,34,0.00
2012-10-26,79.5,71.0,61.2,22.1,17.0,12.2,19,13,10,30.16,29.98,10,4,40,0.00
2012-10-27,88.0,69.2,53.2,34.2,20.2,9.9,25,16,10,29.98,29.81,35,2,35,0.00
2012-10-28,88.3,70.4,56.5,40.6,23.1,17.1,27,17,10,29.97,29.88,9,2,18,0.00
2012-10-29,89.6,74.4,64.2,34.0,25.3,12.9,23,16,10,30.05,29.94,10,4,13,0.00
2012-10-30,89.6,75.2,64.8,40.6,26.6,10.2,30,17,10,30.00,29.84,16,4,16,0.00
2012-10-31,88.5,75.2,65.7,43.5,33.4,17.2,35,23,11,29.97,29.86,50,6,50,0.00
2012-11-1,89.4,74.0,62.1,47.1,37.1,21.2,46,27,13,30.05,29.81,50,9,50,0.00
2012-11-2,89.6,71.6,60.8,48.6,40.8,16.3,58,37,12,30.00,29.81,34,14,34,0.00
2012-11-3,88.5,71.0,57.7,41.2,29.6,18.9,43,23,11,30.03,29.86,15,3,17,0.00
2012-11-4,91.4,73.6,56.8,31.6,22.6,12.7,32,16,10,30.09,29.81,28,3,28,0.00
2012-11-5,94.1,77.6,64.4,32.9,24.1,16.2,22,14,10,30.08,29.83,26,3,26,0.00
2012-11-6,92.5,77.5,62.1,41.7,30.7,21.0,25,18,12,30.04,29.91,19,4,19,0.00
2012-11-7,92.3,79.4,69.4,42.6,32.5,14.4,26,19,10,30.07,29.82,27,9,27,0.00
2012-11-8,94.1,69.5,63.1,52.9,46.3,17.6,63,46,19,30.08,29.75,44,14,44,0.00
2012-11-9,92.3,61.8,51.1,52.2,33.6,19.9,64,37,19,30.04,29.72,40,14,40,0.00
2012-11-10,92.3,55.6,46.2,36.1,24.4,10.9,62,34,16,30.12,29.80,32,10,32,0.00
2012-11-11,77.9,54.9,42.4,18.7,13.7,9.7,29,20,12,30.35,29.73,36,4,36,0.00
2012-11-12,71.6,54.7,40.5,29.7,11.9,5.5,43,19,10,30.33,29.72,33,2,33,0.00
2012-11-13,76.8,56.5,40.8,20.8,12.1,3.0,24,18,10,30.18,29.91,25,2,25,0.00
2012-11-14,73.0,53.5,45.0,20.8,15.0,9.9,31,22,11,30.34,30.01,8,2,8,0.00
2012-11-15,72.3,62.0,54.9,40.2,23.2,13.4,36,23,15,30.08,29.99,6,1,8,0.00
2012-11-16,72.1,62.5,53.6,47.0,28.1,12.8,55,28,15,30.08,29.95,8,1,11,0.00
2012-11-17,77.0,67.0,57.9,51.7,47.0,31.5,67,50,32,30.04,29.94,22,7,29,0.00
2012-11-18,77.5,68.2,62.8,50.4,46.4,34.1,62,48,24,30.10,29.97,22,12,29,0.00
2012-11-19,77.4,65.5,56.5,48.2,43.4,37.4,63,46,25,30.18,30.07,16,2,23,0.00
2012-11-20,78.1,63.6,51.8,43.3,37.9,28.9,61,41,20,30.15,29.96,6,1,11,0.00
2012-11-21,80.6,66.8,54.5,44.7,36.2,26.4,52,34,16,30.03,29.90,12,2,17,0.00
2012-11-22,81.7,67.3,58.3,46.2,39.4,31.4,58,39,18,30.14,29.97,11,2,14,0.00
2012-11-23,83.3,66.5,54.9,40.0,31.9,25.1,44,29,15,30.18,30.04,6,1,8,0.00
2012-11-24,83.8,65.8,52.7,40.3,24.1,15.8,38,21,10,30.11,29.90,5,1,7,0.00
2012-11-25,81.7,66.2,54.7,42.4,31.4,23.2,43,28,14,29.91,29.77,8,1,10,0.00
2012-11-26,79.5,65.6,57.0,46.5,36.9,27.9,47,35,22,30.08,29.88,14,2,17,0.00
2012-11-27,79.3,64.2,52.9,41.1,31.7,24.4,47,31,16,30.12,29.98,11,1,16,0.00
2012-11-28,76.5,66.8,55.9,47.8,40.9,34.5,60,41,25,30.10,29.99,21,5,26,0.00
2012-11-29,78.4,69.9,62.8,54.0,49.2,42.8,66,49,30,30.12,29.99,28,8,34,0.00
2012-11-30,75.7,65.9,56.7,56.2,53.0,47.9,81,64,45,30.09,29.97,24,5,30,0.00
2012-12-1,77.5,69.1,64.6,53.7,51.6,46.5,65,54,34,30.07,29.94,30,15,36,5.66
2012-12-2,77.7,69.0,64.0,54.3,51.0,45.8,67,53,34,30.01,29.90,30,12,40,0.00
2012-12-3,77.7,67.4,60.4,54.3,51.2,48.7,71,57,39,30.14,29.97,21,5,25,0.00
2012-12-4,79.0,65.6,56.8,52.7,49.2,40.7,81,57,35,30.20,30.09,8,1,10,0.00
2012-12-5,79.3,65.7,52.0,44.4,35.3,27.1,52,34,21,30.12,29.89,10,2,14,0.00
2012-12-6,80.4,70.9,62.1,48.5,42.3,34.6,58,37,24,29.90,29.75,22,7,29,0.00
2012-12-7,80.6,66.1,53.6,47.6,33.8,13.4,65,35,10,29.94,29.83,10,2,12,0.00
2012-12-8,76.3,61.0,51.1,33.8,26.5,14.3,47,29,11,29.95,29.81,8,1,10,0.00
2012-12-9,79.3,64.7,51.4,40.5,27.1,13.1,59,29,10,30.18,29.92,10,2,14,0.00
2012-12-10,78.8,56.2,46.2,34.4,25.6,19.9,41,31,18,30.19,29.93,5,1,8,0.00
2012-12-11,72.0,56.9,47.1,37.2,29.2,21.5,54,36,18,30.06,29.92,8,2,9,0.00
2012-12-12,65.3,54.6,44.4,43.8,33.8,22.3,58,47,20,29.95,29.80,22,2,27,0.00
2012-12-13,59.2,55.1,52.5,54.0,47.8,38.6,95,78,53,29.83,29.63,15,2,21,5.70
2012-12-14,63.1,53.6,45.1,46.0,37.7,28.6,84,57,30,29.95,29.64,27,5,30,0.00
2012-12-15,63.1,54.3,47.7,44.0,38.0,26.8,79,56,29,30.04,29.91,17,3,22,0.00
2012-12-16,62.1,54.8,47.8,44.7,41.3,37.3,83,62,41,30.14,30.03,13,2,15,0.00
2012-12-17,67.8,58.1,52.5,47.7,44.7,40.8,79,62,46,30.14,29.94,8,2,12,0.00
2012-12-18,58.5,53.9,49.1,54.3,42.1,9.7,94,70,18,29.95,29.69,30,5,39,0.06
2012-12-19,61.0,49.0,37.6,23.3,14.5,8.3,45,26,16,30.40,29.92,24,4,27,0.00
2012-12-20,59.2,43.3,31.5,24.1,17.8,10.8,62,39,18,30.39,30.19,10,1,10,5.76
2012-12-21,63.1,46.3,32.9,28.3,22.3,13.6,63,43,16,30.20,30.03,5,0,7,0.00
2012-12-22,66.0,50.1,36.5,39.7,22.0,17.3,62,36,16,30.14,30.01,15,2,22,0.00
2012-12-23,67.5,57.6,46.9,43.4,35.9,23.0,60,44,33,30.14,29.99,20,4,26,0.00
2012-12-24,71.2,59.5,48.9,48.7,42.2,2.6,72,54,25,30.09,29.48,27,6,34,5.76
2012-12-25,61.0,52.7,42.6,43.4,19.0,9.4,73,28,18,30.18,30.00,8,1,11,0.00
2012-12-26,65.7,50.7,39.6,40.2,29.3,19.4,62,45,17,29.99,29.78,31,4,42,0.00
2012-12-27,64.6,54.2,46.4,37.8,31.5,24.3,64,44,23,30.11,29.87,19,6,24,0.00
2012-12-28,63.3,49.4,37.0,32.6,22.6,16.9,65,38,17,30.19,30.08,8,1,9,0.00
2012-12-29,59.0,48.2,36.5,40.3,29.7,22.1,74,51,25,30.12,29.95,9,2,13,5.76
2012-12-30,59.4,49.7,42.4,40.1,35.6,29.6,79,60,33,30.04,29.85,17,5,21,0.00
2012-12-31,61.0,49.1,41.5,34.0,26.7,18.0,70,45,19,30.26,30.04,14,3,20,0.00
2013-1-1,72.1,48.7,36.9,32.2,21.7,9.4,74,40,18,30.29,30.17,7,1,10,5.76